THY845 LTFM-LGAV

Flight info

Callsign THY845
Flight time N/A
Altitude 36000
Route IVGUS UY226 BIG UN604 OGSIL
Aircraft A321/M-SDE3FGHIRWY/LB1

Departure

Time 2026-05-01 15:29
Airport İstanbul Airport (LTFM)

Arrival

Time N/A
Airport Athens Eleftherios Venizelos International Airport (LGAV)
Time Latitude Longitude Altitude Speed Heading
2026-05-01 15:15 41.26558 28.73801 334 ft 0 kts 269°
2026-05-01 15:20 41.26558 28.73802 334 ft 1 kts 269°
2026-05-01 15:20 41.26559 28.73822 330 ft 3 kts 253°
2026-05-01 15:20 41.26564 28.73847 331 ft 2 kts 267°
2026-05-01 15:21 41.26564 28.73868 330 ft 3 kts 287°
2026-05-01 15:21 41.26556 28.73886 330 ft 3 kts 339°
2026-05-01 15:21 41.26537 28.73891 331 ft 3 kts 359°
2026-05-01 15:21 41.26518 28.73892 332 ft 2 kts 347°
2026-05-01 15:22 41.26512 28.73893 329 ft 0 kts 341°
2026-05-01 15:23 41.26523 28.73889 334 ft 3 kts 342°
2026-05-01 15:24 41.26571 28.73879 334 ft 11 kts 358°
2026-05-01 15:24 41.26673 28.73877 331 ft 18 kts 360°
2026-05-01 15:24 41.26823 28.73876 333 ft 23 kts 358°
2026-05-01 15:24 41.26878 28.73814 334 ft 10 kts 261°
2026-05-01 15:25 41.26873 28.73678 332 ft 22 kts 269°
2026-05-01 15:25 41.26871 28.73463 332 ft 24 kts 269°
2026-05-01 15:25 41.26868 28.73238 332 ft 25 kts 268°
2026-05-01 15:25 41.26862 28.73037 334 ft 15 kts 256°
2026-05-01 15:26 41.26767 28.72991 331 ft 16 kts 179°
2026-05-01 15:26 41.26649 28.72994 334 ft 18 kts 179°
2026-05-01 15:26 41.26521 28.72998 331 ft 19 kts 179°
2026-05-01 15:26 41.26417 28.72990 330 ft 12 kts 205°
2026-05-01 15:27 41.26333 28.72989 333 ft 13 kts 168°
2026-05-01 15:27 41.26240 28.72988 332 ft 14 kts 213°
2026-05-01 15:27 41.26213 28.72866 334 ft 15 kts 266°
2026-05-01 15:28 41.26211 28.72568 334 ft 9 kts 273°
2026-05-01 15:28 41.26252 28.72527 333 ft 0 kts 355°
2026-05-01 15:28 41.26270 28.72526 334 ft 11 kts 356°
2026-05-01 15:29 41.27334 28.72499 333 ft 143 kts 359°
2026-05-01 15:29 41.28369 28.72474 951 ft 147 kts
2026-05-01 15:29 41.30507 28.72462 2068 ft 170 kts
2026-05-01 15:30 41.33206 28.72521 2666 ft 219 kts
2026-05-01 15:31 41.39315 28.70027 5918 ft 270 kts 302°
2026-05-01 15:31 41.39092 28.65026 7636 ft 297 kts 238°
2026-05-01 15:32 41.36473 28.60790 9625 ft 293 kts 230°
2026-05-01 15:32 41.33706 28.56668 10865 ft 316 kts 230°
2026-05-01 15:33 41.29034 28.49561 12376 ft 350 kts 231°
2026-05-01 15:34 41.24226 28.42167 14646 ft 356 kts 231°